Find GGSE 2

NORAD ID: 1244 Int'l Des: 1965-016 Owner: NRO/NRL Country: US operational
LEOCIRCULAR

Current View

Loading 3D Globe...

About GGSE 2

Description loading...

Upcoming Passes

Passes for default location (London). Set your location on the main map for personalized predictions.

Altitude History

Loading altitude history...

Two-Line Element Set

1 1244U 65016B 26151.15818529 .00000038 00000-0 65899-4 0 9995
2 1244 70.0789 222.5949 0018523 114.1758 246.1287 13.96158025115684
Epoch: May 31, 2026 • Age: 8 hours

Current Status

Altitude 919.7 km
Velocity 7.39 km/s
Sub-Earth Point -30.16°S, 10.27°W
Type other

Most Searched